ANGOSAT 2

Last updated on Tue Sep 22 2026 00:03:15 GMT+0000 (Coordinated Universal Time)

1 54033U 22131A 26264.56490436 .00000000 00000+0 00000+0 0 9999 2 54033 0.0247 166.8527 0001503 82.3356 337.6147 1.00270518 14449
UTC large
Height (km)
Speed (km/s)
/
Latitude / Longitude
Inclination (degrees)
Orbital Period (minutes)
Azimuth
Elevation
Range (km)
Doppler Factor

Next 0 passes for location: London (51.5072 / 0.1276)

No passes found over London.
ANGOSAT 2